| time (UTC) | temp F | wind direction | speed MPH | gust MPH | rain 1hr in | rain 24hr in | rain mn in | humidity % | barometer mb |
| 20260510024010 | 70 | 131 | 0.0 | 2.0 | 0.00 | 0.01 | 0.00 | 58 | 1011.2 |
| 20260510023507 | 70 | 131 | 0.0 | 2.0 | 0.00 | 0.01 | 0.00 | 56 | 1011.0 |
| 20260510023024 | 70 | 131 | 0.0 | 2.0 | 0.00 | 0.01 | 0.00 | 55 | 1010.7 |
| 20260510022510 | 71 | 131 | 0.0 | 2.0 | 0.00 | 0.01 | 0.00 | 54 | 1010.5 |
| 20260510022007 | 71 | 131 | 0.0 | 2.0 | 0.00 | 0.01 | 0.00 | 54 | 1010.3 |
| 20260510021529 | 71 | 131 | 0.0 | 2.0 | 0.00 | 0.01 | 0.00 | 53 | 1010.2 |
| 20260510021011 | 72 | 131 | 0.0 | 2.0 | 0.00 | 0.01 | 0.00 | 52 | 1010.1 |
| 20260510020510 | 72 | 131 | 0.0 | 2.0 | 0.00 | 0.01 | 0.00 | 51 | 1010.0 |
| 20260510020029 | 72 | 131 | 0.0 | 2.0 | 0.00 | 0.01 | 0.00 | 50 | 1009.9 |
| 20260510015508 | 72 | 131 | 0.0 | 2.0 | 0.00 | 0.01 | 0.00 | 49 | 1009.8 |
| 20260510015008 | 73 | 131 | 0.0 | 2.0 | 0.00 | 0.01 | 0.00 | 49 | 1009.7 |
| 20260510014504 | 73 | 131 | 0.0 | 2.0 | 0.00 | 0.01 | 0.00 | 48 | 1009.6 |
| 20260510014007 | 74 | 131 | 0.0 | 2.0 | 0.00 | 0.01 | 0.00 | 48 | 1009.7 |
| 20260510013510 | 74 | 131 | 0.0 | 2.0 | 0.00 | 0.01 | 0.00 | 47 | 1009.6 |
| 20260510013008 | 75 | 131 | 0.0 | 2.0 | 0.00 | 0.01 | 0.00 | 47 | 1009.5 |
| 20260510012505 | 75 | 131 | 0.0 | 2.0 | 0.00 | 0.01 | 0.00 | 46 | 1009.4 |
| 20260510012007 | 76 | 131 | 0.0 | 2.0 | 0.00 | 0.01 | 0.00 | 44 | 1009.3 |
| 20260510011522 | 76 | 131 | 0.0 | 2.0 | 0.00 | 0.01 | 0.00 | 44 | 1009.2 |
| 20260510011007 | 77 | 131 | 0.0 | 3.0 | 0.00 | 0.01 | 0.00 | 43 | 1009.3 |
| 20260510010505 | 77 | 130 | 0.0 | 3.0 | 0.00 | 0.01 | 0.00 | 42 | 1009.2 |
| 20260510010021 | 77 | 130 | 1.0 | 4.0 | 0.00 | 0.01 | 0.00 | 42 | 1009.2 |
| 20260510005507 | 78 | 151 | 1.0 | 4.0 | 0.00 | 0.01 | 0.00 | 41 | 1009.1 |
| 20260510005005 | 78 | 129 | 1.0 | 5.0 | 0.00 | 0.01 | 0.00 | 41 | 1009.1 |
| 20260510004524 | 78 | 137 | 1.0 | 6.0 | 0.00 | 0.01 | 0.00 | 42 | 1009.0 |
| 20260510004004 | 79 | 137 | 2.0 | 6.0 | 0.00 | 0.10 | 0.00 | 42 | 1009.0 |
| 20260510003508 | 79 | 91 | 2.0 | 5.0 | 0.00 | 0.16 | 0.00 | 43 | 1008.9 |
| 20260510003014 | 79 | 126 | 1.0 | 5.0 | 0.00 | 0.16 | 0.00 | 43 | 1008.9 |
| 20260510002505 | 79 | 137 | 4.0 | 5.0 | 0.00 | 0.16 | 0.00 | 42 | 1008.8 |
| 20260510002007 | 80 | 150 | 2.0 | 7.0 | 0.00 | 0.17 | 0.00 | 43 | 1008.9 |
| 20260510001512 | 80 | 116 | 3.0 | 7.0 | 0.00 | 0.18 | 0.00 | 42 | 1008.9 |
| 20260510001004 | 80 | 133 | 1.0 | 9.0 | 0.00 | 0.20 | 0.00 | 42 | 1008.9 |
| 20260510000507 | 80 | 151 | 2.0 | 9.0 | 0.00 | 0.26 | 0.00 | 41 | 1008.9 |
| 20260510000011 | 80 | 122 | 4.0 | 8.0 | 0.00 | 0.47 | 0.00 | 41 | 1008.9 |
| 20260509235509 | 81 | 142 | 4.0 | 9.0 | 0.00 | 0.50 | 0.00 | 41 | 1008.9 |
| 20260509235009 | 81 | 125 | 4.0 | 9.0 | 0.00 | 0.50 | 0.00 | 41 | 1009.0 |
| 20260509234507 | 81 | 96 | 2.0 | 6.0 | 0.00 | 0.55 | 0.00 | 40 | 1009.0 |
| 20260509234009 | 81 | 135 | 3.0 | 7.0 | 0.00 | 0.60 | 0.00 | 39 | 1009.1 |
| 20260509233509 | 81 | 115 | 3.0 | 7.0 | 0.00 | 0.60 | 0.00 | 38 | 1009.1 |
| 20260509233007 | 81 | 129 | 2.0 | 8.0 | 0.00 | 0.60 | 0.00 | 37 | 1009.1 |
| 20260509232507 | 82 | 129 | 4.0 | 10.0 | 0.00 | 0.60 | 0.00 | 35 | 1009.1 |
| 20260509232005 | 82 | 137 | 6.0 | 10.0 | 0.00 | 0.60 | 0.00 | 34 | 1009.2 |
| 20260509231523 | 82 | 174 | 6.0 | 10.0 | 0.00 | 0.60 | 0.00 | 32 | 1009.2 |
| 20260509231006 | 83 | 110 | 3.0 | 9.0 | 0.00 | 0.60 | 0.00 | 31 | 1009.2 |
| 20260509230504 | 83 | 102 | 4.0 | 12.0 | 0.00 | 0.60 | 0.00 | 30 | 1009.3 |
| 20260509230022 | 83 | 123 | 4.0 | 12.0 | 0.00 | 0.60 | 0.00 | 32 | 1009.3 |
| 20260509225507 | 84 | 104 | 3.0 | 11.0 | 0.00 | 0.60 | 0.00 | 32 | 1009.4 |
| 20260509225003 | 84 | 66 | 2.0 | 11.0 | 0.00 | 0.60 | 0.00 | 31 | 1009.4 |
| 20260509224520 | 84 | 106 | 4.0 | 9.0 | 0.00 | 0.60 | 0.00 | 29 | 1009.4 |
| 20260509224007 | 84 | 95 | 4.0 | 11.0 | 0.00 | 0.60 | 0.00 | 28 | 1009.4 |
| 20260509223512 | 85 | 101 | 6.0 | 11.0 | 0.00 | 0.60 | 0.00 | 30 | 1009.4 |
| 20260509223018 | 84 | 179 | 3.0 | 14.0 | 0.00 | 0.60 | 0.00 | 32 | 1009.3 |
| 20260509222503 | 84 | 139 | 2.0 | 14.0 | 0.00 | 0.60 | 0.00 | 31 | 1009.4 |
| 20260509222010 | 84 | 74 | 5.0 | 11.0 | 0.00 | 0.60 | 0.00 | 31 | 1009.5 |
| 20260509221517 | 85 | 58 | 3.0 | 10.0 | 0.00 | 0.60 | 0.00 | 33 | 1009.5 |
| 20260509221005 | 85 | 73 | 3.0 | 12.0 | 0.00 | 0.60 | 0.00 | 34 | 1009.5 |
| 20260509220507 | 85 | 92 | 6.0 | 12.0 | 0.00 | 0.60 | 0.00 | 29 | 1009.6 |
| 20260509220012 | 85 | 103 | 2.0 | 11.0 | 0.00 | 0.60 | 0.00 | 34 | 1009.5 |
| 20260509215511 | 85 | 129 | 6.0 | 11.0 | 0.00 | 0.60 | 0.00 | 31 | 1009.6 |
| 20260509215008 | 84 | 159 | 1.0 | 11.0 | 0.00 | 0.60 | 0.00 | 34 | 1009.6 |
| 20260509214512 | 84 | 48 | 3.0 | 10.0 | 0.00 | 0.60 | 0.00 | 36 | 1009.6 |
| 20260509214007 | 84 | 117 | 5.0 | 9.0 | 0.00 | 0.60 | 0.00 | 37 | 1009.7 |
| 20260509213507 | 84 | 106 | 2.0 | 10.0 | 0.00 | 0.60 | 0.00 | 41 | 1009.6 |
| 20260509213012 | 84 | 162 | 4.0 | 10.0 | 0.00 | 0.60 | 0.00 | 35 | 1009.8 |
| 20260509212508 | 84 | 130 | 5.0 | 10.0 | 0.00 | 0.60 | 0.00 | 37 | 1009.8 |
| 20260509212007 | 84 | 84 | 4.0 | 10.0 | 0.00 | 0.60 | 0.00 | 40 | 1009.9 |
| 20260509211527 | 83 | 140 | 5.0 | 10.0 | 0.00 | 0.60 | 0.00 | 39 | 1010.0 |
| 20260509211010 | 84 | 131 | 4.0 | 9.0 | 0.00 | 0.60 | 0.00 | 41 | 1010.1 |
| 20260509210506 | 84 | 81 | 3.0 | 9.0 | 0.00 | 0.60 | 0.00 | 41 | 1010.1 |
| 20260509210024 | 84 | 71 | 2.0 | 9.0 | 0.00 | 0.60 | 0.00 | 41 | 1010.2 |
| 20260509205509 | 84 | 29 | 4.0 | 9.0 | 0.00 | 0.60 | 0.00 | 34 | 1010.3 |
| 20260509205009 | 84 | 66 | 6.0 | 9.0 | 0.00 | 0.60 | 0.00 | 38 | 1010.3 |
| 20260509204525 | 85 | 75 | 4.0 | 7.0 | 0.00 | 0.60 | 0.00 | 35 | 1010.4 |
| 20260509204011 | 84 | 185 | 4.0 | 8.0 | 0.00 | 0.60 | 0.00 | 30 | 1010.4 |
| 20260509203516 | 84 | 80 | 4.0 | 8.0 | 0.00 | 0.60 | 0.00 | 30 | 1010.4 |
| 20260509203030 | 84 | 155 | 4.0 | 12.0 | 0.00 | 0.60 | 0.00 | 29 | 1010.5 |
| 20260509202507 | 84 | 76 | 7.0 | 12.0 | 0.00 | 0.60 | 0.00 | 36 | 1010.4 |
| 20260509202011 | 83 | 103 | 3.0 | 10.0 | 0.00 | 0.60 | 0.00 | 31 | 1010.4 |
| 20260509201518 | 84 | 195 | 3.0 | 8.0 | 0.00 | 0.60 | 0.00 | 34 | 1010.4 |
| 20260509201010 | 84 | 119 | 5.0 | 8.0 | 0.00 | 0.60 | 0.00 | 32 | 1010.6 |
| 20260509200515 | 84 | 149 | 2.0 | 8.0 | 0.00 | 0.60 | 0.00 | 32 | 1010.6 |
| 20260509200016 | 84 | 149 | 4.0 | 8.0 | 0.00 | 0.60 | 0.00 | 32 | 1010.7 |
| 20260509195511 | 84 | 115 | 1.0 | 7.0 | 0.00 | 0.60 | 0.00 | 37 | 1010.9 |
| 20260509195006 | 84 | 182 | 4.0 | 7.0 | 0.00 | 0.60 | 0.00 | 36 | 1010.8 |
| 20260509194515 | 84 | 156 | 3.0 | 6.0 | 0.00 | 0.60 | 0.00 | 36 | 1010.9 |
| 20260509194002 | 83 | 158 | 1.0 | 6.0 | 0.00 | 0.60 | 0.00 | 38 | 1011.0 |
| 20260509193507 | 83 | 179 | 2.0 | 9.0 | 0.00 | 0.60 | 0.00 | 36 | 1011.1 |
| 20260509193013 | 83 | 116 | 3.0 | 9.0 | 0.00 | 0.60 | 0.00 | 33 | 1011.1 |
| 20260509192503 | 83 | 92 | 5.0 | 9.0 | 0.00 | 0.60 | 0.00 | 28 | 1011.2 |
| 20260509192007 | 83 | 124 | 4.0 | 9.0 | 0.00 | 0.60 | 0.00 | 30 | 1011.2 |
| 20260509191510 | 83 | 99 | 1.0 | 8.0 | 0.00 | 0.60 | 0.00 | 32 | 1011.1 |
| 20260509191007 | 83 | 122 | 2.0 | 8.0 | 0.00 | 0.60 | 0.00 | 40 | 1011.1 |
| 20260509190507 | 82 | 123 | 2.0 | 9.0 | 0.00 | 0.60 | 0.00 | 39 | 1011.1 |
| 20260509190006 | 82 | 156 | 3.0 | 9.0 | 0.00 | 0.60 | 0.00 | 36 | 1011.1 |
| 20260509185503 | 82 | 129 | 1.0 | 6.0 | 0.00 | 0.60 | 0.00 | 43 | 1011.1 |
| 20260509185007 | 81 | 196 | 1.0 | 7.0 | 0.00 | 0.60 | 0.00 | 46 | 1011.1 |
| 20260509184509 | 81 | 196 | 2.0 | 7.0 | 0.00 | 0.60 | 0.00 | 42 | 1011.2 |
| 20260509184008 | 81 | 155 | 4.0 | 7.0 | 0.00 | 0.60 | 0.00 | 46 | 1011.2 |
| 20260509183507 | 82 | 212 | 2.0 | 7.0 | 0.00 | 0.60 | 0.00 | 46 | 1011.2 |
| 20260509183004 | 81 | 101 | 4.0 | 7.0 | 0.00 | 0.60 | 0.00 | 41 | 1011.3 |
| 20260509182506 | 81 | 127 | 3.0 | 7.0 | 0.00 | 0.60 | 0.00 | 47 | 1011.4 |
| 20260509182010 | 81 | 108 | 4.0 | 8.0 | 0.00 | 0.60 | 0.00 | 48 | 1011.4 |
| 20260509181504 | 80 | 131 | 2.0 | 8.0 | 0.00 | 0.60 | 0.00 | 52 | 1011.4 |
| 20260509181008 | 81 | 230 | 3.0 | 8.0 | 0.00 | 0.60 | 0.00 | 52 | 1011.4 |
| 20260509180506 | 81 | 139 | 2.0 | 7.0 | 0.00 | 0.60 | 0.00 | 54 | 1011.4 |
| 20260509180021 | 80 | 168 | 1.0 | 7.0 | 0.00 | 0.60 | 0.00 | 47 | 1011.5 |
| 20260509175504 | 80 | 142 | 3.0 | 7.0 | 0.00 | 0.60 | 0.00 | 51 | 1011.6 |
| 20260509175004 | 79 | 98 | 2.0 | 7.0 | 0.00 | 0.60 | 0.00 | 52 | 1011.7 |
| 20260509174541 | 79 | 156 | 1.0 | 7.0 | 0.00 | 0.60 | 0.00 | 52 | 1011.7 |
| 20260509174007 | 78 | 200 | 2.0 | 7.0 | 0.00 | 0.60 | 0.00 | 52 | 1011.8 |
| 20260509173504 | 79 | 152 | 2.0 | 6.0 | 0.00 | 0.60 | 0.00 | 56 | 1011.8 |
| 20260509173016 | 78 | 206 | 2.0 | 11.0 | 0.00 | 0.60 | 0.00 | 51 | 1011.8 |
| 20260509172510 | 77 | 178 | 1.0 | 11.0 | 0.00 | 0.60 | 0.00 | 53 | 1011.9 |
| 20260509172011 | 77 | 195 | 4.0 | 7.0 | 0.00 | 0.60 | 0.00 | 56 | 1012.0 |
| 20260509171510 | 77 | 230 | 2.0 | 7.0 | 0.00 | 0.60 | 0.00 | 63 | 1012.1 |
| 20260509171010 | 77 | 147 | 2.0 | 7.0 | 0.00 | 0.60 | 0.00 | 60 | 1012.2 |
| 20260509170507 | 77 | 177 | 1.0 | 5.0 | 0.00 | 0.60 | 0.00 | 63 | 1012.1 |
| 20260509170012 | 76 | 126 | 2.0 | 5.0 | 0.00 | 0.60 | 0.00 | 66 | 1012.1 |
| 20260509165504 | 75 | 181 | 2.0 | 5.0 | 0.00 | 0.60 | 0.00 | 69 | 1012.1 |
| 20260509165009 | 76 | 160 | 2.0 | 9.0 | 0.00 | 0.60 | 0.00 | 67 | 1012.3 |
| 20260509164509 | 75 | 153 | 1.0 | 9.0 | 0.00 | 0.60 | 0.00 | 67 | 1012.3 |
| 20260509164011 | 74 | 165 | 5.0 | 9.0 | 0.00 | 0.60 | 0.00 | 68 | 1012.2 |
| 20260509163504 | 74 | 171 | 2.0 | 8.0 | 0.00 | 0.60 | 0.00 | 69 | 1012.2 |
| 20260509163006 | 74 | 146 | 2.0 | 8.0 | 0.00 | 0.60 | 0.00 | 69 | 1012.2 |
| 20260509162513 | 74 | 175 | 2.0 | 7.0 | 0.00 | 0.60 | 0.00 | 71 | 1012.2 |
| 20260509162004 | 74 | 185 | 2.0 | 6.0 | 0.00 | 0.60 | 0.00 | 71 | 1012.1 |
| 20260509161503 | 74 | 165 | 2.0 | 6.0 | 0.00 | 0.60 | 0.00 | 71 | 1012.0 |
| 20260509161012 | 73 | 160 | 4.0 | 5.0 | 0.00 | 0.60 | 0.00 | 70 | 1012.1 |
| 20260509160507 | 73 | 155 | 2.0 | 4.0 | 0.00 | 0.60 | 0.00 | 72 | 1012.0 |
| 20260509160022 | 72 | 187 | 3.0 | 4.0 | 0.00 | 0.60 | 0.00 | 75 | 1012.0 |
| 20260509155504 | 72 | 137 | 2.0 | 4.0 | 0.00 | 0.60 | 0.00 | 76 | 1012.0 |
| 20260509155004 | 71 | 201 | 2.0 | 4.0 | 0.00 | 0.60 | 0.00 | 77 | 1011.9 |
| 20260509154519 | 71 | 174 | 2.0 | 3.0 | 0.00 | 0.60 | 0.00 | 80 | 1011.9 |
| 20260509154010 | 71 | 203 | 2.0 | 3.0 | 0.00 | 0.60 | 0.00 | 77 | 1011.9 |
| 20260509153505 | 71 | 165 | 1.0 | 3.0 | 0.00 | 0.60 | 0.00 | 78 | 1011.8 |
| 20260509153033 | 70 | 176 | 1.0 | 4.0 | 0.00 | 0.60 | 0.00 | 78 | 1011.8 |
| 20260509152505 | 70 | 162 | 1.0 | 4.0 | 0.00 | 0.60 | 0.00 | 80 | 1011.9 |
| 20260509152013 | 69 | 164 | 2.0 | 7.0 | 0.00 | 0.60 | 0.00 | 80 | 1011.9 |
| 20260509151518 | 69 | 123 | 1.0 | 7.0 | 0.00 | 0.60 | 0.00 | 80 | 1011.9 |
| 20260509151003 | 68 | 158 | 2.0 | 6.0 | 0.00 | 0.60 | 0.00 | 84 | 1012.0 |
| 20260509150511 | 67 | 167 | 1.0 | 3.0 | 0.00 | 0.60 | 0.00 | 83 | 1012.0 |
| 20260509150022 | 67 | 170 | 0.0 | 3.0 | 0.00 | 0.60 | 0.00 | 84 | 1011.9 |
| 20260509145503 | 66 | 189 | 0.0 | 3.0 | 0.00 | 0.60 | 0.00 | 85 | 1011.9 |
| 20260509145007 | 66 | 178 | 1.0 | 4.0 | 0.00 | 0.60 | 0.00 | 86 | 1012.0 |
| 20260509144512 | 65 | 185 | 1.0 | 4.0 | 0.00 | 0.60 | 0.00 | 87 | 1011.9 |
| 20260509144008 | 65 | 199 | 3.0 | 4.0 | 0.00 | 0.60 | 0.00 | 88 | 1011.9 |
| 20260509143508 | 65 | 148 | 1.0 | 4.0 | 0.00 | 0.60 | 0.00 | 90 | 1011.9 |
| 20260509143010 | 64 | 149 | 2.0 | 6.0 | 0.00 | 0.60 | 0.00 | 91 | 1011.9 |
| 20260509142507 | 64 | 206 | 3.0 | 6.0 | 0.00 | 0.60 | 0.00 | 91 | 1011.9 |
| 20260509142007 | 64 | 156 | 1.0 | 5.0 | 0.00 | 0.60 | 0.00 | 92 | 1011.9 |
| 20260509141526 | 64 | 169 | 2.0 | 5.0 | 0.00 | 0.60 | 0.00 | 93 | 1012.0 |
| 20260509141011 | 63 | 176 | 1.0 | 3.0 | 0.00 | 0.60 | 0.00 | 93 | 1011.9 |
| 20260509140507 | 63 | 188 | 1.0 | 3.0 | 0.00 | 0.60 | 0.00 | 93 | 1011.9 |
| 20260509140033 | 62 | 194 | 1.0 | 2.0 | 0.00 | 0.60 | 0.00 | 94 | 1011.9 |
| 20260509135508 | 62 | 202 | 1.0 | 2.0 | 0.00 | 0.60 | 0.00 | 94 | 1011.8 |
| 20260509135009 | 61 | 203 | 1.0 | 2.0 | 0.00 | 0.60 | 0.00 | 94 | 1011.8 |
| 20260509134523 | 61 | 203 | 0.0 | 3.0 | 0.00 | 0.60 | 0.00 | 94 | 1011.7 |
| 20260509134006 | 61 | 204 | 0.0 | 4.0 | 0.00 | 0.60 | 0.00 | 94 | 1011.5 |
| 20260509133507 | 61 | 158 | 0.0 | 4.0 | 0.00 | 0.60 | 0.00 | 94 | 1011.3 |
| 20260509133022 | 60 | 164 | 2.0 | 4.0 | 0.00 | 0.60 | 0.00 | 94 | 1011.2 |
| 20260509132508 | 60 | 81 | 1.0 | 2.0 | 0.00 | 0.60 | 0.00 | 94 | 1011.1 |
| 20260509132011 | 60 | 81 | 1.0 | 2.0 | 0.00 | 0.60 | 0.00 | 94 | 1011.1 |
| 20260509131523 | 59 | 150 | 0.0 | 2.0 | 0.00 | 0.60 | 0.00 | 94 | 1011.1 |
| 20260509131007 | 58 | 53 | 0.0 | 0.0 | 0.00 | 0.60 | 0.00 | 94 | 1011.1 |
| 20260509130507 | 58 | 73 | 0.0 | 0.0 | 0.00 | 0.60 | 0.00 | 94 | 1011.1 |
| 20260509130016 | 57 | 73 | 0.0 | 0.0 | 0.00 | 0.60 | 0.00 | 94 | 1011.2 |
| 20260509125516 | 57 | 100 | 0.0 | 1.0 | 0.00 | 0.60 | 0.00 | 94 | 1011.1 |
| 20260509125007 | 56 | 215 | 0.0 | 2.0 | 0.00 | 0.60 | 0.00 | 94 | 1010.9 |
| 20260509124515 | 56 | 215 | 0.0 | 2.0 | 0.00 | 0.60 | 0.00 | 94 | 1010.9 |
| 20260509124007 | 56 | 192 | 0.0 | 0.0 | 0.00 | 0.60 | 0.00 | 94 | 1010.9 |
| 20260509123507 | 55 | 192 | 0.0 | 2.0 | 0.00 | 0.60 | 0.00 | 93 | 1010.9 |
| 20260509123012 | 55 | 192 | 0.0 | 2.0 | 0.00 | 0.60 | 0.00 | 93 | 1010.9 |
| 20260509122510 | 54 | 192 | 0.0 | 2.0 | 0.00 | 0.60 | 0.00 | 93 | 1010.8 |
| 20260509122006 | 54 | 192 | 1.0 | 2.0 | 0.00 | 0.60 | 0.00 | 93 | 1010.9 |
| 20260509121528 | 54 | 226 | 0.0 | 2.0 | 0.00 | 0.60 | 0.00 | 93 | 1010.8 |
| 20260509121012 | 53 | 226 | 0.0 | 0.0 | 0.00 | 0.60 | 0.00 | 93 | 1010.8 |
| 20260509120507 | 53 | 226 | 0.0 | 0.0 | 0.00 | 0.60 | 0.00 | 93 | 1010.7 |
| 20260509120030 | 53 | 229 | 0.0 | 2.0 | 0.00 | 0.60 | 0.00 | 93 | 1010.6 |
| 20260509115507 | 53 | 229 | 0.0 | 2.0 | 0.00 | 0.60 | 0.00 | 93 | 1010.6 |
| 20260509115009 | 53 | 210 | 0.0 | 1.0 | 0.00 | 0.60 | 0.00 | 93 | 1010.5 |
| 20260509114526 | 53 | 292 | 0.0 | 1.0 | 0.00 | 0.60 | 0.00 | 93 | 1010.5 |
| 20260509114010 | 53 | 254 | 0.0 | 0.0 | 0.00 | 0.60 | 0.00 | 93 | 1010.6 |
| 20260509113510 | 53 | 227 | 0.0 | 0.0 | 0.00 | 0.60 | 0.00 | 93 | 1010.6 |
| 20260509113026 | 53 | 233 | 0.0 | 0.0 | 0.00 | 0.60 | 0.00 | 93 | 1010.6 |
| 20260509112506 | 53 | 233 | 0.0 | 0.0 | 0.00 | 0.60 | 0.00 | 93 | 1010.4 |
| 20260509112011 | 53 | 233 | 0.0 | 0.0 | 0.00 | 0.60 | 0.00 | 93 | 1010.4 |
| 20260509111521 | 53 | 233 | 0.0 | 0.0 | 0.00 | 0.60 | 0.00 | 93 | 1010.4 |
| 20260509111007 | 53 | 233 | 0.0 | 0.0 | 0.00 | 0.60 | 0.00 | 93 | 1010.4 |
| 20260509110509 | 53 | 233 | 0.0 | 0.0 | 0.00 | 0.60 | 0.00 | 93 | 1010.3 |
| 20260509110020 | 54 | 233 | 0.0 | 0.0 | 0.00 | 0.60 | 0.00 | 93 | 1010.3 |
| 20260509105507 | 54 | 233 | 0.0 | 0.0 | 0.00 | 0.60 | 0.00 | 93 | 1010.3 |
| 20260509105007 | 54 | 233 | 0.0 | 0.0 | 0.00 | 0.60 | 0.00 | 93 | 1010.2 |
| 20260509104518 | 54 | 233 | 0.0 | 0.0 | 0.00 | 0.60 | 0.00 | 93 | 1010.2 |
| 20260509104004 | 54 | 233 | 0.0 | 0.0 | 0.00 | 0.60 | 0.00 | 93 | 1010.3 |
| 20260509103503 | 54 | 233 | 0.0 | 0.0 | 0.00 | 0.60 | 0.00 | 93 | 1010.3 |
| 20260509103012 | 54 | 233 | 0.0 | 0.0 | 0.00 | 0.60 | 0.00 | 93 | 1010.3 |
| 20260509102502 | 54 | 233 | 0.0 | 0.0 | 0.00 | 0.60 | 0.00 | 93 | 1010.2 |
| 20260509102010 | 54 | 233 | 0.0 | 0.0 | 0.00 | 0.60 | 0.00 | 93 | 1010.2 |
| 20260509101513 | 54 | 233 | 0.0 | 0.0 | 0.00 | 0.60 | 0.00 | 93 | 1010.2 |
| 20260509101003 | 54 | 233 | 0.0 | 0.0 | 0.00 | 0.60 | 0.00 | 93 | 1010.2 |
| 20260509100507 | 55 | 233 | 0.0 | 0.0 | 0.00 | 0.60 | 0.00 | 93 | 1010.3 |
| 20260509100009 | 55 | 233 | 0.0 | 0.0 | 0.00 | 0.60 | 0.00 | 93 | 1010.3 |
| 20260509095506 | 55 | 233 | 0.0 | 0.0 | 0.00 | 0.60 | 0.00 | 93 | 1010.3 |
| 20260509095007 | 55 | 233 | 0.0 | 0.0 | 0.00 | 0.60 | 0.00 | 93 | 1010.4 |
| 20260509094506 | 55 | 233 | 0.0 | 0.0 | 0.00 | 0.60 | 0.00 | 93 | 1010.5 |
| 20260509094009 | 55 | 233 | 0.0 | 0.0 | 0.00 | 0.60 | 0.00 | 93 | 1010.5 |
| 20260509093507 | 55 | 233 | 0.0 | 0.0 | 0.00 | 0.60 | 0.00 | 93 | 1010.5 |
| 20260509093009 | 55 | 232 | 0.0 | 0.0 | 0.00 | 0.60 | 0.00 | 93 | 1010.4 |
| 20260509092508 | 55 | 233 | 0.0 | 0.0 | 0.00 | 0.60 | 0.00 | 93 | 1010.4 |
| 20260509092007 | 55 | 233 | 0.0 | 0.0 | 0.00 | 0.60 | 0.00 | 93 | 1010.3 |
| 20260509091507 | 55 | 232 | 0.0 | 0.0 | 0.00 | 0.60 | 0.00 | 93 | 1010.4 |
| 20260509091014 | 55 | 233 | 0.0 | 0.0 | 0.00 | 0.60 | 0.00 | 93 | 1010.4 |
| 20260509090504 | 56 | 233 | 0.0 | 0.0 | 0.00 | 0.60 | 0.00 | 93 | 1010.4 |
| 20260509090024 | 56 | 233 | 0.0 | 0.0 | 0.00 | 0.60 | 0.00 | 93 | 1010.5 |
| 20260509085503 | 56 | 233 | 0.0 | 0.0 | 0.00 | 0.60 | 0.00 | 93 | 1010.6 |
| 20260509085003 | 56 | 233 | 0.0 | 0.0 | 0.00 | 0.60 | 0.00 | 93 | 1010.5 |
| 20260509084523 | 56 | 233 | 0.0 | 0.0 | 0.00 | 0.60 | 0.00 | 93 | 1010.5 |
| 20260509084009 | 56 | 233 | 0.0 | 0.0 | 0.00 | 0.60 | 0.00 | 93 | 1010.6 |
| 20260509083503 | 56 | 233 | 0.0 | 0.0 | 0.00 | 0.60 | 0.00 | 93 | 1010.6 |
| 20260509083017 | 56 | 233 | 0.0 | 0.0 | 0.00 | 0.60 | 0.00 | 93 | 1010.6 |
| 20260509082504 | 56 | 233 | 0.0 | 0.0 | 0.00 | 0.60 | 0.00 | 93 | 1010.6 |
| 20260509082010 | 56 | 233 | 0.0 | 0.0 | 0.00 | 0.60 | 0.00 | 93 | 1010.7 |
| 20260509081516 | 56 | 233 | 0.0 | 0.0 | 0.00 | 0.60 | 0.00 | 93 | 1010.7 |
| 20260509081007 | 56 | 233 | 0.0 | 0.0 | 0.00 | 0.60 | 0.00 | 93 | 1010.7 |
| 20260509080513 | 56 | 233 | 0.0 | 0.0 | 0.00 | 0.60 | 0.00 | 93 | 1010.6 |
| 20260509080015 | 57 | 233 | 0.0 | 0.0 | 0.00 | 0.60 | 0.00 | 92 | 1010.7 |
| 20260509075504 | 57 | 233 | 0.0 | 0.0 | 0.00 | 0.60 | 0.00 | 92 | 1010.7 |
| 20260509075008 | 57 | 232 | 0.0 | 0.0 | 0.00 | 0.60 | 0.00 | 92 | 1010.7 |
| 20260509074510 | 57 | 233 | 0.0 | 0.0 | 0.00 | 0.60 | 0.00 | 92 | 1010.7 |
| 20260509074008 | 57 | 233 | 0.0 | 0.0 | 0.00 | 0.60 | 0.00 | 92 | 1010.8 |
| 20260509073507 | 57 | 233 | 0.0 | 0.0 | 0.00 | 0.60 | 0.00 | 92 | 1010.9 |
| 20260509073006 | 57 | 233 | 0.0 | 0.0 | 0.00 | 0.60 | 0.00 | 92 | 1010.9 |
| 20260509072510 | 57 | 233 | 0.0 | 0.0 | 0.00 | 0.60 | 0.00 | 92 | 1011.0 |
| 20260509072009 | 57 | 233 | 0.0 | 0.0 | 0.00 | 0.60 | 0.00 | 92 | 1011.0 |
| 20260509071524 | 57 | 233 | 0.0 | 0.0 | 0.00 | 0.60 | 0.00 | 92 | 1011.1 |
| 20260509071006 | 57 | 233 | 0.0 | 0.0 | 0.00 | 0.60 | 0.00 | 92 | 1011.2 |
| 20260509070503 | 57 | 233 | 0.0 | 0.0 | 0.00 | 0.60 | 0.00 | 92 | 1011.2 |
| 20260509070026 | 57 | 233 | 0.0 | 0.0 | 0.00 | 0.60 | 0.00 | 92 | 1011.3 |
| 20260509065507 | 58 | 233 | 0.0 | 0.0 | 0.00 | 0.60 | 0.00 | 92 | 1011.4 |
| 20260509065004 | 58 | 233 | 0.0 | 0.0 | 0.00 | 0.60 | 0.00 | 92 | 1011.5 |
| 20260509064524 | 58 | 233 | 0.0 | 0.0 | 0.00 | 0.60 | 0.00 | 92 | 1011.4 |
| 20260509064009 | 58 | 233 | 0.0 | 0.0 | 0.00 | 0.60 | 0.00 | 92 | 1011.3 |
| 20260509063511 | 58 | 233 | 0.0 | 0.0 | 0.00 | 0.60 | 0.00 | 92 | 1011.4 |
| 20260509063023 | 58 | 233 | 0.0 | 0.0 | 0.00 | 0.60 | 0.00 | 92 | 1011.4 |
| 20260509062508 | 58 | 232 | 0.0 | 0.0 | 0.00 | 0.60 | 0.00 | 92 | 1011.5 |
| 20260509062009 | 58 | 233 | 0.0 | 0.0 | 0.00 | 0.60 | 0.00 | 92 | 1011.3 |
| 20260509061519 | 58 | 233 | 0.0 | 0.0 | 0.00 | 0.60 | 0.00 | 92 | 1011.3 |
| 20260509061004 | 58 | 233 | 0.0 | 0.0 | 0.00 | 0.60 | 0.00 | 92 | 1011.4 |
| 20260509060509 | 58 | 233 | 0.0 | 0.0 | 0.00 | 0.60 | 0.00 | 92 | 1011.4 |
| 20260509060013 | 58 | 233 | 0.0 | 0.0 | 0.00 | 0.60 | 0.00 | 92 | 1011.3 |
| 20260509055510 | 58 | 232 | 0.0 | 0.0 | 0.00 | 0.60 | 0.00 | 92 | 1011.4 |
| 20260509055013 | 58 | 232 | 0.0 | 0.0 | 0.00 | 0.60 | 0.00 | 92 | 1011.3 |
| 20260509054512 | 59 | 233 | 0.0 | 0.0 | 0.00 | 0.60 | 0.00 | 92 | 1011.2 |
| 20260509054011 | 59 | 233 | 0.0 | 0.0 | 0.00 | 0.60 | 0.00 | 92 | 1011.0 |
| 20260509053507 | 59 | 233 | 0.0 | 0.0 | 0.00 | 0.60 | 0.00 | 92 | 1010.9 |
| 20260509053010 | 59 | 233 | 0.0 | 0.0 | 0.00 | 0.60 | 0.00 | 92 | 1011.0 |
| 20260509052508 | 59 | 233 | 0.0 | 0.0 | 0.00 | 0.60 | 0.00 | 92 | 1011.0 |
| 20260509052008 | 59 | 233 | 0.0 | 0.0 | 0.00 | 0.60 | 0.00 | 92 | 1011.1 |
| 20260509051527 | 59 | 233 | 0.0 | 0.0 | 0.00 | 0.60 | 0.00 | 92 | 1011.1 |
| 20260509051007 | 59 | 233 | 0.0 | 0.0 | 0.00 | 0.60 | 0.00 | 92 | 1011.2 |
| 20260509050507 | 59 | 233 | 0.0 | 0.0 | 0.00 | 0.60 | 0.00 | 92 | 1011.3 |
| 20260509050042 | 59 | 233 | 0.0 | 0.0 | 0.00 | 0.60 | 0.00 | 92 | 1011.4 |
| 20260509045507 | 60 | 233 | 0.0 | 2.0 | 0.00 | 0.60 | 0.60 | 92 | 1011.3 |
| 20260509045003 | 60 | 233 | 0.0 | 2.0 | 0.00 | 0.60 | 0.60 | 92 | 1011.3 |
| 20260509044524 | 60 | 233 | 0.0 | 2.0 | 0.00 | 0.60 | 0.60 | 92 | 1011.3 |
| 20260509043510 | 60 | 232 | 0.0 | 2.0 | 0.01 | 0.60 | 0.60 | 92 | 1011.2 |
| 20260509043021 | 60 | 239 | 0.0 | 3.0 | 0.01 | 0.60 | 0.60 | 92 | 1011.2 |
| 20260509042507 | 60 | 240 | 0.0 | 3.0 | 0.01 | 0.60 | 0.60 | 92 | 1011.2 |
| 20260509042017 | 60 | 204 | 0.0 | 3.0 | 0.01 | 0.60 | 0.60 | 92 | 1011.3 |
| 20260509041519 | 60 | 174 | 1.0 | 3.0 | 0.01 | 0.60 | 0.60 | 92 | 1011.2 |
| 20260509041004 | 60 | 173 | 0.0 | 2.0 | 0.01 | 0.60 | 0.60 | 91 | 1011.3 |
| 20260509040507 | 60 | 173 | 0.0 | 2.0 | 0.01 | 0.60 | 0.60 | 91 | 1011.2 |
| 20260509040017 | 60 | 173 | 0.0 | 2.0 | 0.01 | 0.60 | 0.60 | 91 | 1011.2 |
| 20260509035513 | 60 | 173 | 0.0 | 2.0 | 0.01 | 0.60 | 0.60 | 91 | 1011.1 |
| 20260509035008 | 60 | 173 | 0.0 | 2.0 | 0.01 | 0.60 | 0.60 | 91 | 1011.1 |
| 20260509034514 | 61 | 173 | 0.0 | 2.0 | 0.01 | 0.60 | 0.60 | 91 | 1011.0 |
| 20260509034010 | 61 | 173 | 0.0 | 2.0 | 0.01 | 0.60 | 0.60 | 91 | 1011.0 |
| 20260509033507 | 61 | 173 | 0.0 | 5.0 | 0.00 | 0.58 | 0.58 | 91 | 1011.0 |
| 20260509033012 | 61 | 173 | 2.0 | 5.0 | 0.00 | 0.58 | 0.58 | 91 | 1011.0 |
| 20260509032508 | 61 | 181 | 1.0 | 3.0 | 0.00 | 0.58 | 0.58 | 91 | 1010.9 |
| 20260509032010 | 61 | 156 | 2.0 | 4.0 | 0.00 | 0.58 | 0.58 | 91 | 1010.7 |
| 20260509031532 | 61 | 156 | 1.0 | 4.0 | 0.00 | 0.58 | 0.58 | 91 | 1010.8 |
| 20260509031009 | 61 | 152 | 1.0 | 4.0 | 0.00 | 0.58 | 0.58 | 91 | 1010.8 |
| 20260509030508 | 61 | 191 | 2.0 | 3.0 | 0.00 | 0.58 | 0.58 | 91 | 1010.9 |
| 20260509030033 | 61 | 181 | 1.0 | 3.0 | 0.00 | 0.58 | 0.58 | 91 | 1010.9 |
| 20260509025510 | 61 | 177 | 1.0 | 6.0 | 0.00 | 0.58 | 0.58 | 91 | 1010.7 |
| 20260509025007 | 62 | 163 | 2.0 | 7.0 | 0.00 | 0.58 | 0.58 | 91 | 1010.6 |
| 20260509024535 | 62 | 162 | 2.0 | 7.0 | 0.00 | 0.58 | 0.58 | 91 | 1010.4 |